ES'HAIL 2 (43700 NORAD) Tracking and Keplerian Element Data

This shows tracking and keplerian element data for the satellite.

Feedback or suggestion? Click here.




ElementValue
Catalog43700
NameES'HAIL 2
Epoch Orbit706
Epoch Day304.79871823
Epoch Year2020
RAAN229.9273
Inclination0.0111
Eccentricity0.0002169
Argument of Perigee15.6363
Mean Anonmoly107.3196
Mean Motion1.00272283
Decay Rate1.49E-06
L11 43700U 18090A 20304.79871823 .00000149 00000-0 00000-0 0 9990
L22 43700 0.0111 229.9273 0002169 15.6363 107.3196 1.00272283 7060

Live tracking and technical data element details for ES'HAIL 2 (NORAD 43700). ES'HAIL 2 can be tracked NOW for your location showing map with azimuth and elevation plus other details from your city location.

Track the satellite on the map from your city or location and see movement details for azimuth, elevation, latitude, longitude, range, height, and movement on the map or in text.







IsCatalogInMostPopularTable: catalog: 43700, numindb: 7650
Update: records affected: 1



GetName: 43700 ES'HAIL 2

Hit Count: updated at: Sat, 31 Oct 2020 20:02:36 GMT